CAPE
9 4 8 9 12 12 4 4 2 1 3 2 0 0 0 0 0 0 1 43 23 24 0 0 0 0 0 0 0 21 175 168 25 13 25 0 0 0 0 0 0 0 0 0 0 0 0
5 5 7 5 12 15 17 1 3 3 2 0 0 0 0 0 0 0 0 22 60 2 0 0 1 0 0 0 0 3 152 36 6 0 1 0 2 0 0 0 0 0 0 0 0 0 0
6 6 12 6 7 18 22 8 0 2 0 0 0 0 0 0 0 0 0 0 1 0 0 11 11 0 0 0 0 0 15 2 4 0 17 0 0 0 0 0 0 0 0 0 0 0 0
6 5 4 4 7 16 22 12 1 2 0 0 0 0 0 0 0 0 0 0 0 1 0 5 3 0 0 0 0 0 0 0 4 0 0 0 0 0 0 0 0 0 0 0 0 0 0
7 8 1 1 3 12 17 7 4 2 0 0 0 0 0 0 0 0 0 0 0 0 4 0 0 0 0 0 0 0 2 5 1 0 0 0 0 0 0 0 0 0 0 0 0 0 0
5 7 6 2 0 5 13 8 1 2 0 0 0 0 0 0 0 0 0 0 0 0 0 0 0 0 0 0 0 0 0 0 0 0 4 0 0 0 0 0 0 0 0 0 0 0 0
6 1 4 2 5 5 5 5 1 0 0 0 0 0 0 0 0 0 0 0 0 0 0 0 0 1 0 0 0 0 0 0 0 0 0 0 0 0 0 0 0 0 0 0 0 0 0
1 2 1 1 1 1 4 3 3 0 0 0 0 0 0 0 0 0 0 0 0 0 0 0 0 0 0 0 0 1 0 0 0 0 0 0 0 0 0 0 0 0 0 0 0 0 0
1 0 2 0 0 0 0 2 0 0 0 0 0 0 0 0 0 0 0 0 0 0 0 0 0 0 0 0 0 0 0 0 0 0 0 0 0 0 0 0 0 0 0 0 0 0 0
2 2 1 0 0 0 0 0 1 0 0 0 0 0 0 0 0 0 0 0 0 0 0 0 0 0 0 0 0 0 0 0 0 0 0 0 0 0 0 0 0 0 0 0 0 0 0
1 0 0 0 0 0 0 0 0 1 0 0 0 0 0 0 0 0 0 0 0 0 0 0 0 0 0 0 0 0 0 0 0 0 0 0 0 0 0 0 0 0 0 0 0 0 0
0 0 0 0 0 0 0 0 0 1 1 0 0 0 0 0 0 0 0 0 0 0 0 0 0 0 0 0 0 0 0 0 0 0 0 0 0 0 0 0 0 0 0 0 0 0 0
2 1 0 0 0 0 0 0 0 0 0 0 0 0 0 0 0 0 0 0 0 0 0 0 0 0 0 0 0 0 0 0 0 0 0 0 0 0 0 0 0 0 0 0 0 0 0
0 0 0 0 0 0 0 0 0 0 0 0 0 0 0 0 0 0 0 0 0 0 0 0 0 0 0 0 0 0 0 0 0 0 0 0 0 0 0 0 0 0 0 0 0 0 0
0 0 0 0 0 0 0 0 0 0 0 0 0 0 0 0 0 0 0 0 0 0 0 0 0 0 0 0 0 0 0 0 0 0 0 0 0 0 0 0 0 0 0 0 0 0 0
0 0 0 0 0 0 0 0 0 0 0 0 0 0 0 0 0 0 0 0 0 0 0 0 0 0 0 0 0 0 0 0 0 0 0 0 0 0 0 0 0 0 0 0 0 0 0
0 0 0 0 0 0 0 0 0 0 0 0 0 0 0 0 0 0 0 0 0 0 0 0 0 0 0 0 0 0 0 0 0 0 0 0 0 0 0 0 0 0 0 0 0 0 0
0 0 0 0 0 0 0 0 0 0 0 0 0 0 0 0 0 0 0 0 0 0 0 0 0 0 0 0 0 0 0 0 0 0 0 0 0 0 0 0 0 0 0 0 0 0 0
0 0 0 0 0 0 0 0 0 0 0 0 0 0 0 0 0 0 0 0 0 0 0 0 0 0 0 0 0 0 0 0 0 0 0 0 0 0 0 0 0 0 0 0 0 0 0
0 0 0 0 0 0 0 0 0 0 0 0 0 0 0 0 0 0 0 0 0 0 0 0 0 0 0 0 0 0 0 0 0 0 0 0 0 0 0 0 0 0 0 0 0 0 0
0 0 0 0 0 0 0 0 0 0 0 0 0 0 0 0 0 0 0 0 0 0 0 0 0 0 0 0 0 0 0 0 0 0 0 0 0 0 0 0 0 0 0 0 0 0 0
0 0 0 0 0 0 0 0 0 0 0 0 0 0 0 0 0 0 0 0 0 0 0 0 0 0 0 0 0 0 0 0 0 0 0 0 0 0 0 0 0 0 0 0 0 0 0
0 0 0 0 0 0 0 0 0 0 0 0 0 0 0 0 0 0 0 0 0 0 0 0 0 0 0 0 0 0 0 0 0 0 0 0 0 0 0 0 0 0 0 0 0 0 0
1 0 0 0 0 0 0 0 0 0 0 0 0 0 0 0 0 0 0 0 0 0 0 0 0 0 0 0 0 0 0 0 0 0 0 0 0 0 0 0 0 0 0 0 0 0 0
11 5 4 0 0 0 0 0 0 0 0 0 0 0 0 0 0 0 0 0 0 0 0 0 0 0 0 0 0 0 0 0 0 0 0 0 0 0 0 0 0 0 0 0 0 0 0
6 7 5 5 1 0 0 0 0 0 0 0 0 0 0 0 0 0 0 0 0 0 0 0 0 0 0 0 0 0 0 0 0 0 0 0 0 0 0 0 0 0 0 0 0 0 0
0 0 0 8 7 0 0 0 0 0 0 0 0 0 0 0 0 0 0 0 0 0 0 0 0 0 0 0 0 0 0 0 0 0 0 0 1 0 0 0 0 0 0 0 0 0 0
0 0 0 0 2 4 0 0 0 0 0 0 0 0 0 0 0 0 0 0 0 0 0 0 0 0 0 0 0 0 0 0 0 0 0 0 0 0 1 0 0 0 0 0 0 0 0
0 0 0 0 0 0 1 0 0 0 0 0 0 0 0 0 0 0 0 0 0 0 0 0 0 0 0 0 0 0 0 0 0 0 0 0 0 0 0 0 0 0 0 0 0 0 0
CIN
-0 -0 -0 -1 -2 -1 -0 -0 -0 -0 -0 -0 -0 -0 -0 -0 -0 -0 -31 -52 -46 -19 -0 -0 -0 -0 -0 -0 -0 -38 -18 -27 -37 -38 -38 -17 -0 -0 -0 -0 -0 -0 -0 -0 -0 -0 -0
-0 -0 -0 -0 -2 -1 -1 -0 -0 -0 -0 -0 -0 -0 -0 -0 -0 -0 -0 -83 -58 -29 -0 -3 -33 -0 -0 -0 -0 -10 -37 -57 -100 -0 -67 -23 -7 -0 -0 -0 -0 -0 -0 -0 -0 -0 -0
-1 -0 -0 -1 -1 -0 -0 -2 -1 -0 -0 -0 -0 -0 -0 -0 -0 -0 -0 -8 -47 -0 -0 -47 -65 -0 -0 -0 -0 -3 -55 -65 -67 -0 -37 -0 -0 -0 -0 -0 -0 -0 -0 -0 -0 -0 -0
-0 -0 -1 -1 -0 -0 -0 -0 -0 -0 -0 -0 -0 -0 -0 -0 -0 -0 -0 -0 -17 -22 -1 -68 -84 -7 -0 -0 -0 -0 -7 -0 -30 -13 -0 -0 -0 -0 -0 -0 -0 -0 -0 -0 -0 -0 -0
-0 -0 -0 -0 -0 -0 -0 -1 -0 -0 -0 -0 -0 -0 -0 -0 -0 -0 -0 -0 -0 -0 -57 -0 -0 -18 -0 -0 -0 -0 -45 -29 -17 -0 -0 -0 -0 -0 -0 -0 -0 -0 -0 -0 -0 -0 -0
-0 -0 -0 -1 -0 -0 -0 -0 -0 -0 -0 -0 -0 -0 -0 -0 -0 -0 -0 -0 -0 -0 -0 -0 -0 -0 -0 -0 -0 -0 -0 -0 -0 -0 -102 -0 -0 -0 -0 -0 -0 -0 -0 -0 -0 -0 -0
-0 -0 -0 -0 -0 -0 -0 -0 -0 -0 -0 -0 -0 -0 -0 -0 -0 -0 -0 -0 -0 -0 -0 -0 -0 -22 -7 -0 -0 -0 -0 -0 -0 -0 -0 -0 -0 -0 -0 -0 -0 -0 -0 -0 -0 -0 -0
-0 -1 -0 -0 -0 -0 -0 -0 -0 -0 -0 -0 -0 -0 -0 -0 -0 -0 -0 -0 -0 -0 -0 -0 -0 -0 -0 -0 -0 -15 -0 -0 -0 -0 -0 -0 -0 -0 -0 -0 -0 -0 -0 -0 -0 -0 -0
-0 -0 -0 -0 -0 -0 -0 -0 -0 -0 -0 -0 -0 -0 -0 -0 -0 -0 -0 -0 -0 -0 -0 -0 -0 -0 -0 -0 -0 -0 -0 -0 -0 -0 -0 -0 -0 -0 -0 -0 -0 -0 -0 -0 -0 -0 -0
-0 -0 -0 -0 -0 -0 -0 -0 -0 -0 -0 -0 -0 -0 -0 -0 -0 -0 -0 -0 -0 -0 -0 -0 -0 -0 -0 -0 -0 -0 -0 -0 -0 -0 -0 -0 -0 -0 -0 -0 -0 -0 -0 -0 -0 -0 -0
-0 -0 -0 -0 -0 -0 -0 -0 -0 -0 -0 -0 -0 -0 -0 -0 -0 -0 -0 -0 -0 -0 -0 -0 -0 -0 -0 -0 -0 -0 -0 -0 -0 -0 -0 -0 -0 -0 -0 -0 -0 -0 -0 -0 -0 -0 -0
-0 -0 -0 -0 -0 -0 -0 -0 -0 -0 -0 -0 -0 -0 -0 -0 -0 -0 -0 -0 -0 -0 -0 -0 -0 -0 -0 -0 -0 -0 -0 -0 -0 -0 -0 -0 -0 -0 -0 -0 -0 -0 -0 -0 -0 -0 -0
-0 -0 -0 -0 -0 -0 -0 -0 -0 -0 -0 -0 -0 -0 -0 -0 -0 -0 -0 -0 -0 -0 -0 -0 -0 -0 -0 -0 -0 -0 -0 -0 -0 -0 -0 -0 -0 -0 -0 -0 -0 -0 -0 -0 -0 -0 -0
-0 -0 -0 -0 -0 -0 -0 -0 -0 -0 -0 -0 -0 -0 -0 -0 -0 -0 -0 -0 -0 -0 -0 -0 -0 -0 -0 -0 -0 -0 -0 -0 -0 -0 -0 -0 -0 -0 -0 -0 -0 -0 -0 -0 -0 -0 -0
-0 -0 -0 -0 -0 -0 -0 -0 -0 -0 -0 -0 -0 -0 -0 -0 -0 -0 -0 -0 -0 -0 -0 -0 -0 -0 -0 -0 -0 -0 -0 -0 -0 -0 -0 -0 -0 -0 -0 -0 -0 -0 -0 -0 -0 -0 -0
-0 -0 -0 -0 -0 -0 -0 -0 -0 -0 -0 -0 -0 -0 -0 -0 -0 -0 -0 -0 -0 -0 -0 -0 -0 -0 -0 -0 -0 -0 -0 -0 -0 -0 -0 -0 -0 -0 -0 -0 -0 -0 -0 -0 -0 -0 -0
-0 -0 -0 -0 -0 -0 -0 -0 -0 -0 -0 -0 -0 -0 -0 -0 -0 -0 -0 -0 -0 -0 -0 -0 -0 -0 -0 -0 -0 -0 -0 -0 -0 -0 -0 -0 -0 -0 -0 -0 -0 -0 -0 -0 -0 -0 -0
-0 -0 -0 -0 -0 -0 -0 -0 -0 -0 -0 -0 -0 -0 -0 -0 -0 -0 -0 -0 -0 -0 -0 -0 -0 -0 -0 -0 -0 -0 -0 -0 -0 -0 -0 -0 -0 -0 -0 -0 -0 -0 -0 -0 -0 -0 -0
-0 -0 -0 -0 -0 -0 -0 -0 -0 -0 -0 -0 -0 -0 -0 -0 -0 -0 -0 -0 -0 -0 -0 -0 -0 -0 -0 -0 -0 -0 -0 -0 -0 -0 -0 -0 -0 -0 -0 -0 -0 -0 -0 -0 -0 -0 -0
-0 -0 -0 -0 -0 -0 -0 -0 -0 -0 -0 -0 -0 -0 -0 -0 -0 -0 -0 -0 -0 -0 -0 -0 -0 -0 -0 -0 -0 -0 -0 -0 -0 -0 -0 -0 -0 -0 -0 -0 -0 -0 -0 -0 -0 -0 -0
-0 -0 -0 -0 -0 -0 -0 -0 -0 -0 -0 -0 -0 -0 -0 -0 -0 -0 -0 -0 -0 -0 -0 -0 -0 -0 -0 -0 -0 -0 -0 -0 -0 -0 -0 -0 -0 -0 -0 -0 -0 -0 -0 -0 -0 -0 -0
-0 -0 -0 -0 -0 -0 -0 -0 -0 -0 -0 -0 -0 -0 -0 -0 -0 -0 -0 -0 -0 -0 -0 -0 -0 -0 -0 -0 -0 -0 -0 -0 -0 -0 -0 -0 -0 -0 -0 -0 -0 -0 -0 -0 -0 -0 -0
-0 -0 -0 -0 -0 -0 -0 -0 -0 -0 -0 -0 -0 -0 -0 -0 -0 -0 -0 -0 -0 -0 -0 -0 -0 -0 -0 -0 -0 -0 -0 -0 -0 -0 -0 -0 -0 -0 -0 -0 -0 -0 -0 -0 -0 -0 -0
-15 -0 -0 -0 -0 -0 -0 -0 -0 -0 -0 -0 -0 -0 -0 -0 -0 -0 -0 -0 -0 -0 -0 -0 -0 -0 -0 -0 -0 -0 -0 -0 -0 -0 -0 -0 -0 -0 -0 -0 -0 -0 -0 -0 -0 -0 -0
-14 -10 -8 -9 -0 -0 -0 -0 -0 -0 -0 -0 -0 -0 -0 -0 -0 -0 -0 -0 -0 -0 -0 -0 -0 -0 -0 -0 -0 -0 -0 -0 -0 -0 -0 -0 -0 -0 -0 -0 -0 -0 -0 -0 -0 -0 -0
-18 -2 -7 -11 -10 -0 -0 -0 -0 -0 -0 -0 -0 -0 -0 -0 -0 -0 -0 -0 -0 -0 -0 -0 -0 -0 -0 -0 -0 -0 -0 -0 -0 -0 -0 -0 -0 -0 -0 -0 -0 -0 -0 -0 -0 -0 -0
-0 -0 -0 -5 -8 -5 -0 -0 -0 -0 -0 -0 -0 -0 -0 -0 -0 -0 -0 -0 -0 -0 -0 -0 -0 -0 -0 -0 -0 -0 -0 -0 -0 -0 -0 -0 -0 -0 -0 -0 -0 -0 -0 -0 -0 -0 -0
-0 -0 -0 -0 -15 -4 -0 -0 -0 -0 -0 -0 -0 -0 -0 -0 -0 -0 -0 -0 -0 -0 -0 -0 -0 -0 -0 -0 -0 -0 -0 -0 -0 -0 -0 -0 -0 -0 -0 -0 -0 -0 -0 -0 -0 -0 -0
-0 -0 -0 -0 -0 -0 -4 -0 -0 -0 -0 -0 -0 -0 -0 -0 -0 -0 -0 -0 -0 -0 -0 -0 -0 -0 -0 -0 -0 -0 -0 -0 -0 -0 -0 -0 -0 -0 -0 -0 -0 -0 -0 -0 -0 -0 -0
Wind_Speed
33 35 35 35 34 32 28 24 24 24 24 22 22 22 22 22 23 21 17 11 5 4 11 10 10 11 11 11 12 16 13 11 11 17 17 12 18 24 34 31 29 29 26 21 18 17 17
33 34 35 35 35 32 28 24 21 21 22 21 20 20 20 19 20 17 15 12 10 7 9 12 11 15 10 10 13 12 9 10 14 14 15 14 17 18 26 29 30 25 20 18 16 17 17
33 35 35 35 34 32 29 24 20 19 20 19 17 18 19 19 19 17 17 17 20 20 21 10 9 23 8 11 14 11 11 14 12 14 15 17 18 18 23 26 22 21 22 18 17 19 18
33 35 35 35 34 32 30 25 20 19 19 19 17 17 19 19 18 14 17 18 19 22 20 3 6 13 12 8 13 15 13 9 15 12 19 19 18 18 21 20 22 25 22 26 22 19 19
34 35 35 35 35 34 32 28 22 20 19 19 18 18 18 18 15 16 20 26 21 19 12 4 11 16 15 15 14 13 12 10 19 18 16 16 18 20 21 27 29 25 29 25 23 18 21
34 35 35 35 35 35 33 30 25 20 19 19 18 18 18 18 15 15 23 24 30 26 17 9 15 21 10 13 14 13 15 22 15 14 15 16 19 21 22 29 36 31 27 24 23 21 18
33 35 36 35 34 34 34 32 28 22 20 19 18 17 15 16 17 18 26 25 24 25 21 20 28 26 17 15 16 8 15 20 17 17 16 14 19 22 24 23 23 23 22 22 20 18 19
33 34 36 34 34 33 33 32 30 24 20 18 17 14 11 11 15 17 24 28 26 21 28 20 19 19 13 15 24 11 13 20 18 13 17 15 21 18 18 18 18 19 20 20 17 16 17
32 34 36 35 34 33 32 31 29 23 18 15 14 11 6 7 12 15 21 20 18 21 24 20 16 15 8 15 15 10 10 16 16 9 10 17 21 17 19 17 18 17 18 19 19 17 15
31 34 36 37 35 32 29 29 26 23 16 11 13 13 9 5 12 13 15 14 15 18 25 15 13 17 21 27 18 13 12 18 15 13 14 13 16 18 18 18 17 20 15 14 15 18 20
31 33 35 37 36 33 27 24 22 20 16 10 11 13 14 16 15 14 14 13 17 18 33 10 13 11 16 24 18 13 10 10 14 14 16 18 16 16 15 16 15 17 14 13 15 16 18
30 32 34 37 38 34 24 19 13 14 13 10 13 12 16 18 18 16 12 18 19 26 34 20 15 16 20 16 19 16 16 16 19 11 9 18 16 13 12 10 9 10 11 12 13 16 21
29 31 32 35 38 33 16 14 13 13 9 8 15 15 20 19 19 14 16 18 25 31 21 23 23 18 20 17 17 15 18 14 16 17 17 15 11 12 11 11 11 12 13 17 20 21 22
28 30 32 34 37 32 19 15 20 21 11 3 12 18 17 18 15 15 17 21 31 26 26 21 21 22 26 16 17 16 20 16 11 14 17 13 13 11 12 11 12 12 14 17 21 21 22
28 29 31 33 35 36 25 22 22 24 17 2 13 15 18 12 14 17 21 28 27 24 22 22 22 25 23 20 19 19 18 18 15 14 16 13 11 12 10 12 13 15 16 14 18 21 25
27 29 30 32 34 35 33 31 28 27 23 6 15 16 17 10 15 19 26 28 25 22 19 19 23 20 23 19 21 20 19 15 18 17 18 19 10 12 14 14 14 15 11 20 22 26 28
26 28 29 31 33 34 35 33 30 30 24 10 15 18 15 15 18 24 28 25 23 19 19 20 21 21 20 19 19 19 18 17 16 14 11 12 12 13 11 15 17 17 19 20 20 23 26
25 26 28 30 32 33 34 34 32 31 26 20 16 22 16 17 24 23 24 23 21 19 18 19 19 20 19 16 17 17 17 16 15 15 15 15 14 16 17 16 16 17 19 19 24 26 25
24 25 26 28 31 33 34 34 32 31 31 20 20 17 18 19 24 24 22 21 20 21 20 19 19 17 17 17 18 16 14 13 14 15 16 17 18 19 20 20 20 21 19 19 20 23 27
23 25 26 27 29 31 33 33 32 30 29 23 20 20 16 25 23 22 20 19 20 19 19 18 19 17 16 16 16 15 14 13 12 15 17 18 17 16 16 21 20 22 11 11 12 26 22
23 25 26 27 28 30 31 31 30 30 27 21 21 19 19 15 5 17 17 18 19 19 17 17 18 18 18 17 15 15 14 12 12 6 17 11 12 14 20 23 20 19 11 5 9 7 9
23 25 26 27 27 28 29 29 30 30 26 20 20 20 20 18 14 19 17 17 18 18 18 17 18 17 16 15 15 15 14 12 12 12 11 12 9 15 15 22 10 14 11 10 13 12 17
23 24 26 27 27 27 28 28 29 29 25 20 19 18 19 21 21 21 19 18 18 19 17 17 17 18 16 15 15 13 13 14 14 15 11 13 12 16 18 18 22 22 14 10 12 12 16
23 24 25 27 27 26 25 26 26 26 24 20 19 19 21 21 20 21 19 18 20 21 21 21 18 18 17 16 18 16 16 14 14 14 16 18 19 21 27 27 29 20 14 18 18 19 16
24 24 25 25 27 26 24 24 25 24 23 20 19 20 20 23 21 22 19 20 21 21 20 20 20 21 22 23 23 24 23 22 21 21 18 18 21 26 27 30 37 31 25 24 24 28 25
25 26 26 26 26 26 24 23 22 22 22 20 19 18 19 21 21 19 19 19 22 22 23 22 21 20 21 23 24 26 24 25 25 26 22 18 20 21 27 36 38 24 25 24 26 38 27
27 28 29 28 25 24 23 21 20 20 20 19 19 18 20 24 22 20 21 21 19 21 23 24 24 23 21 23 25 27 28 26 28 25 26 25 25 26 28 34 34 28 26 25 34 35 25
29 30 30 30 27 25 22 19 18 17 17 19 20 18 21 23 25 22 22 22 22 22 26 23 26 24 24 25 26 26 26 25 28 27 29 29 28 31 28 33 43 24 25 30 30 29 29
33 35 35 32 28 24 22 19 17 16 15 16 21 18 18 22 24 22 23 22 22 21 23 22 24 24 21 26 27 27 28 27 29 35 26 36 30 33 27 31 28 26 30 29 31 32 30
Wind_Direction
49 45 43 41 40 42 45 48 48 49 51 56 57 54 49 49 46 46 50 67 108 164 280 264 252 239 269 261 256 234 247 249 243 218 212 218 211 211 208 216 218 215 221 229 233 235 240
47 44 42 41 40 41 44 48 52 53 54 58 59 55 51 51 48 49 55 72 87 109 215 264 271 168 275 269 245 237 266 256 232 237 231 216 216 222 213 215 216 216 215 221 231 233 239
46 42 41 40 40 40 42 48 54 56 56 59 61 57 53 51 47 50 63 77 84 87 100 307 280 107 333 236 219 224 238 238 236 237 220 215 218 218 213 209 212 208 210 219 232 235 238
43 41 40 40 40 41 42 47 55 58 58 60 64 62 58 56 49 56 66 77 97 86 106 248 206 170 169 208 197 205 212 251 227 235 206 218 222 212 212 210 212 210 216 215 230 236 240
37 39 39 40 40 41 43 46 54 60 60 63 65 66 65 60 53 65 74 74 88 99 116 189 157 143 158 176 179 215 213 220 194 200 214 224 212 205 207 204 204 215 208 214 222 240 239
35 36 37 39 40 41 43 45 53 59 62 65 67 71 72 66 59 64 77 84 81 91 122 179 137 124 163 179 179 195 191 171 198 200 208 212 203 199 208 206 203 205 206 214 220 235 241
31 30 34 37 40 42 43 45 49 58 61 64 69 73 77 75 71 71 82 86 85 90 101 118 106 111 132 151 164 222 184 179 189 191 201 208 188 195 208 217 214 205 206 211 225 238 241
25 25 27 36 39 42 42 44 46 53 59 62 66 73 81 87 80 80 81 79 87 102 96 113 120 119 124 159 139 177 185 179 187 199 199 199 191 206 217 212 204 201 204 216 229 244 246
18 18 21 29 36 40 43 43 44 50 56 61 62 68 84 102 93 90 81 91 105 105 103 107 116 115 137 148 149 178 190 185 184 189 193 192 202 213 210 208 204 211 214 221 231 243 257
13 11 11 20 31 38 42 43 44 46 53 64 63 60 70 118 99 104 97 107 122 123 98 99 116 114 117 135 145 169 196 181 186 184 186 194 207 209 210 212 219 215 233 236 239 243 248
9 7 4 12 24 33 40 42 42 43 50 66 69 63 70 85 101 105 114 129 121 127 82 107 118 141 132 138 155 165 188 192 178 185 193 190 194 202 207 218 228 224 237 245 249 253 257
2 358 349 1 14 30 40 39 23 30 45 63 72 74 76 89 95 111 141 123 117 94 83 106 123 124 130 140 143 161 166 166 167 180 174 182 189 208 213 226 233 225 242 258 265 263 258
356 355 342 349 358 27 37 31 349 344 12 64 75 82 77 90 91 119 126 121 92 82 108 104 111 124 127 134 141 151 154 167 180 183 187 192 202 212 221 228 244 251 246 247 253 257 263
355 349 342 343 353 336 324 331 328 330 335 44 88 82 86 87 102 112 114 104 83 96 103 117 119 122 116 139 139 148 153 163 173 183 187 206 212 233 242 253 255 263 261 256 257 263 272
344 341 341 342 349 345 323 324 325 327 324 60 95 94 84 97 106 108 105 89 94 103 112 113 118 112 114 133 145 147 150 156 172 183 190 219 244 250 271 269 276 269 270 290 279 282 279
340 337 339 341 345 342 332 328 326 327 323 88 91 96 80 105 110 107 95 91 101 113 117 117 108 117 114 123 124 136 145 176 168 171 167 173 267 276 277 286 316 297 310 279 282 279 281
334 335 336 339 338 339 336 331 327 328 324 88 90 85 83 99 105 88 82 95 104 117 118 111 109 115 121 124 128 134 139 171 185 212 305 331 308 304 336 303 294 296 290 294 294 291 292
334 337 338 338 336 334 335 332 329 329 324 57 83 59 78 92 71 87 89 95 105 109 116 115 116 116 118 135 129 135 141 158 208 214 273 295 311 297 298 309 309 305 300 298 291 293 297
332 338 341 341 340 337 335 331 329 329 340 43 48 74 75 77 62 79 93 97 101 96 102 108 109 114 119 120 119 134 153 195 240 217 199 204 243 262 277 291 297 297 303 304 304 303 297
333 334 334 339 339 338 335 330 328 327 333 9 28 31 45 32 61 72 92 95 96 98 101 109 101 114 117 114 111 120 132 148 202 239 294 273 200 189 193 225 294 258 315 318 315 300 303
324 328 334 335 338 335 332 329 326 325 331 355 347 16 28 302 296 92 91 86 79 79 92 93 89 81 80 76 92 106 98 108 108 146 339 332 187 203 232 236 223 221 212 216 227 258 267
318 321 325 328 331 333 329 326 326 327 340 343 328 329 333 328 245 6 53 58 50 48 51 58 53 61 58 58 53 45 48 57 52 53 45 31 30 359 354 333 346 232 243 250 245 267 257
313 316 318 319 325 327 329 330 329 329 339 334 339 350 330 301 306 324 346 2 10 2 16 23 27 25 28 26 22 27 21 11 10 1 11 359 359 348 334 339 332 324 328 330 329 315 311
306 309 313 313 317 323 326 329 332 334 338 336 335 332 322 320 322 327 341 353 348 339 343 343 359 2 11 14 3 2 355 355 348 341 337 333 333 332 321 324 315 333 340 327 317 319 307
299 303 306 308 308 314 320 325 328 332 332 333 331 328 323 311 319 324 334 335 337 338 338 340 341 341 344 342 341 339 340 338 337 332 326 326 322 318 319 314 309 315 326 327 324 323 326
298 299 300 301 303 306 311 316 321 325 328 329 329 334 329 323 322 331 335 336 330 328 329 331 336 344 340 333 334 328 330 328 325 323 336 327 321 314 317 309 308 329 331 331 327 317 327
297 297 297 298 299 301 304 308 313 318 322 324 323 329 322 315 319 324 324 327 332 330 326 326 328 330 333 329 324 322 320 320 317 318 316 319 315 303 303 306 309 315 317 325 315 319 330
296 298 297 295 294 295 296 298 304 309 314 316 315 321 318 314 314 317 319 318 320 321 318 325 325 325 323 319 318 320 319 319 316 316 314 311 312 309 306 305 306 321 322 312 317 322 320
295 296 294 293 292 289 289 289 292 298 305 311 311 317 320 313 312 319 317 317 316 317 318 318 318 321 321 318 316 319 314 315 313 309 315 306 306 307 302 306 316 320 314 316 316 314 316